Location: ČR
(50.0000°N, 15.0000°E)
Time: 11:14:52
(UTC+02:00)

A-11 Canister half - Pass Details

Date: 18 March 2026
Orbit: 1514 x 1685 km, 47.2° (Epoch: 16 April)

Event Time Altitude Azimuth Distance (km) Brightness Sun altitude
Rises 12:47:34 0° 215° (SW) 4,801 12.4 38.5°
Reaches altitude 10° 12:50:51 10° 209° (SSW) 3,842 12.3 38.3°
Maximum altitude 12:59:48 41° 143° (SE) 2,239 10.8 38.0°
Drops below altitude 10° 13:09:00 10° 78° (ENE) 3,946 11.0 37.5°
Sets 13:12:24 0° 72° (ENE) 4,943 11.4 37.3°
